Time,TemperatureF,DewpointF,PressureIn,WindDirection,WindDirectionDegrees,WindSpeedMPH,WindSpeedGustMPH,Humidity,HourlyPrecipIn,Conditions,Clouds,dailyrainin,SoftwareType,DateUTC
2013-11-10 00:01:00,45.5,3.2,29.91,SSE,150,2.2,4.0,17,0.00,,---,0.00,VWS V14.01,2013-11-10 05:01:00,
2013-11-10 00:02:00,45.5,3.2,29.91,SSE,150,3.6,3.6,17,0.00,,---,0.00,VWS V14.01,2013-11-10 05:02:00,
2013-11-10 00:07:00,45.1,2.9,29.91,SSE,150,2.2,2.7,17,0.00,,---,0.00,VWS V14.01,2013-11-10 05:07:00,
2013-11-10 00:12:00,45.1,6.5,29.88,ESE,117,2.7,3.1,20,0.00,,---,0.00,VWS V14.01,2013-11-10 05:12:00,
2013-11-10 00:17:00,45.1,6.5,29.88,ESE,118,3.1,3.6,20,0.00,,---,0.00,VWS V14.01,2013-11-10 05:17:00,
2013-11-10 00:22:00,45.1,6.5,29.88,SSE,157,4.0,4.0,20,0.00,,---,0.00,VWS V14.01,2013-11-10 05:22:00,
2013-11-10 00:27:00,45.1,2.9,29.88,SSE,157,0.0,0.0,17,0.00,,---,0.00,VWS V14.01,2013-11-10 05:27:00,
2013-11-10 00:32:00,45.0,6.3,29.88,SSE,157,2.2,3.6,20,0.00,,---,0.00,VWS V14.01,2013-11-10 05:32:00,
2013-11-10 00:37:00,44.8,6.2,29.88,SSE,159,3.1,3.1,20,0.00,,---,0.00,VWS V14.01,2013-11-10 05:37:00,
2013-11-10 00:42:00,44.6,6.0,29.88,SSE,148,2.7,3.1,20,0.00,,---,0.00,VWS V14.01,2013-11-10 05:42:00,
2013-11-10 00:47:00,44.4,5.9,29.88,SSE,154,0.0,2.2,20,0.00,,---,0.00,VWS V14.01,2013-11-10 05:47:00,
2013-11-10 00:52:00,44.4,5.9,29.88,SSE,153,0.0,2.7,20,0.00,,---,0.00,VWS V14.01,2013-11-10 05:52:00,
2013-11-10 00:58:00,44.2,5.7,29.85,SSE,153,2.7,2.7,20,0.00,,---,0.00,VWS V14.01,2013-11-10 05:58:00,
2013-11-10 01:03:00,44.1,5.6,29.85,SSE,153,0.0,0.0,20,0.00,,---,0.00,VWS V14.01,2013-11-10 06:03:00,
2013-11-10 01:08:00,43.9,5.4,29.85,SSE,155,2.7,4.0,20,0.00,,---,0.00,VWS V14.01,2013-11-10 06:08:00,
2013-11-10 01:13:00,43.5,8.2,29.85,SSE,155,2.7,2.7,23,0.00,,---,0.00,VWS V14.01,2013-11-10 06:13:00,
2013-11-10 01:18:00,43.5,8.2,29.85,SSE,155,0.0,0.0,23,0.00,,---,0.00,VWS V14.01,2013-11-10 06:18:00,
2013-11-10 01:23:00,43.3,8.0,29.85,SSE,155,0.0,0.0,23,0.00,,---,0.00,VWS V14.01,2013-11-10 06:23:00,
2013-11-10 01:28:00,43.2,9.7,29.85,SSE,155,0.0,0.0,25,0.00,,---,0.00,VWS V14.01,2013-11-10 06:28:00,
2013-11-10 01:33:00,42.8,12.0,29.85,SSE,155,0.0,0.0,28,0.00,,---,0.00,VWS V14.01,2013-11-10 06:33:00,
2013-11-10 01:38:00,42.6,11.8,29.85,SSE,155,0.0,0.0,28,0.00,,---,0.00,VWS V14.01,2013-11-10 06:38:00,
2013-11-10 01:43:00,42.4,12.4,29.85,SSE,155,0.0,0.0,29,0.00,,---,0.00,VWS V14.01,2013-11-10 06:43:00,
2013-11-10 01:48:00,42.3,12.3,29.85,SSE,155,0.0,0.0,29,0.00,,---,0.00,VWS V14.01,2013-11-10 06:48:00,
2013-11-10 01:53:00,42.1,12.1,29.85,SSE,155,0.0,0.0,29,0.00,,---,0.00,VWS V14.01,2013-11-10 06:53:00,
2013-11-10 01:58:00,41.9,12.0,29.85,SSE,155,0.0,0.0,29,0.00,,---,0.00,VWS V14.01,2013-11-10 06:58:00,
2013-11-10 02:03:00,41.7,12.6,29.85,SSE,155,0.0,0.0,30,0.00,,---,0.00,VWS V14.01,2013-11-10 07:03:00,
2013-11-10 02:08:00,41.7,12.6,29.85,SSE,155,0.0,0.0,30,0.00,,---,0.00,VWS V14.01,2013-11-10 07:08:00,
2013-11-10 02:13:00,41.5,13.2,29.85,SSE,155,0.0,0.0,31,0.00,,---,0.00,VWS V14.01,2013-11-10 07:13:00,
2013-11-10 02:18:00,41.2,12.9,29.85,SSE,155,0.0,0.0,31,0.00,,---,0.00,VWS V14.01,2013-11-10 07:18:00,
2013-11-10 02:23:00,41.0,13.4,29.85,SSE,155,0.0,0.0,32,0.00,,---,0.00,VWS V14.01,2013-11-10 07:23:00,
2013-11-10 02:28:00,41.0,13.4,29.85,SSE,155,0.0,0.0,32,0.00,,---,0.00,VWS V14.01,2013-11-10 07:28:00,
2013-11-10 02:33:00,40.8,14.0,29.85,SSE,155,0.0,0.0,33,0.00,,---,0.00,VWS V14.01,2013-11-10 07:33:00,
2013-11-10 02:38:00,40.6,14.5,29.85,SSE,155,0.0,0.0,34,0.00,,---,0.00,VWS V14.01,2013-11-10 07:38:00,
2013-11-10 02:43:00,40.5,14.3,29.85,SSE,155,0.0,0.0,34,0.00,,---,0.00,VWS V14.01,2013-11-10 07:43:00,
2013-11-10 02:48:00,40.3,15.5,29.85,SSE,155,0.0,0.0,36,0.00,,---,0.00,VWS V14.01,2013-11-10 07:48:00,
2013-11-10 02:53:00,40.3,16.7,29.85,SSE,155,0.0,0.0,38,0.00,,---,0.00,VWS V14.01,2013-11-10 07:53:00,
2013-11-10 02:58:00,40.1,17.1,29.85,SSE,155,0.0,0.0,39,0.00,,---,0.00,VWS V14.01,2013-11-10 07:58:00,
2013-11-10 03:03:00,40.1,17.1,29.85,SSE,155,0.0,0.0,39,0.00,,---,0.00,VWS V14.01,2013-11-10 08:03:00,
2013-11-10 03:08:00,40.1,17.1,29.85,SSE,155,0.0,0.0,39,0.00,,---,0.00,VWS V14.01,2013-11-10 08:08:00,
2013-11-10 03:13:00,39.9,17.0,29.85,SSE,155,0.0,0.0,39,0.00,,---,0.00,VWS V14.01,2013-11-10 08:13:00,
2013-11-10 03:18:00,39.9,17.0,29.85,SSE,155,0.0,0.0,39,0.00,,---,0.00,VWS V14.01,2013-11-10 08:18:00,
2013-11-10 03:23:00,39.9,17.0,29.85,SSE,155,0.0,0.0,39,0.00,,---,0.00,VWS V14.01,2013-11-10 08:23:00,
2013-11-10 03:28:00,39.9,17.0,29.85,SSE,155,0.0,0.0,39,0.00,,---,0.00,VWS V14.01,2013-11-10 08:28:00,
2013-11-10 03:33:00,39.9,17.0,29.85,SSE,155,0.0,0.0,39,0.00,,---,0.00,VWS V14.01,2013-11-10 08:33:00,
2013-11-10 03:38:00,39.9,17.0,29.85,SSE,155,0.0,0.0,39,0.00,,---,0.00,VWS V14.01,2013-11-10 08:38:00,
2013-11-10 03:43:00,39.9,17.0,29.83,SSE,155,0.0,0.0,39,0.00,,---,0.00,VWS V14.01,2013-11-10 08:43:00,
2013-11-10 03:48:00,40.1,17.1,29.83,SSE,155,0.0,0.0,39,0.00,,---,0.00,VWS V14.01,2013-11-10 08:48:00,
2013-11-10 03:53:00,40.1,17.1,29.83,South,172,2.7,3.6,39,0.00,,---,0.00,VWS V14.01,2013-11-10 08:53:00,
2013-11-10 03:58:00,40.3,17.3,29.85,South,172,0.0,0.0,39,0.00,,---,0.00,VWS V14.01,2013-11-10 08:58:00,
2013-11-10 04:03:00,40.3,17.3,29.85,South,172,0.0,0.0,39,0.00,,---,0.00,VWS V14.01,2013-11-10 09:03:00,
2013-11-10 04:08:00,40.3,17.3,29.85,South,172,0.0,0.0,39,0.00,,---,0.00,VWS V14.01,2013-11-10 09:08:00,
2013-11-10 04:13:00,40.1,17.1,29.83,South,172,0.0,0.0,39,0.00,,---,0.00,VWS V14.01,2013-11-10 09:13:00,
2013-11-10 04:18:00,40.3,17.3,29.83,South,172,0.0,0.0,39,0.00,,---,0.00,VWS V14.01,2013-11-10 09:18:00,
2013-11-10 04:23:00,40.3,17.3,29.83,South,172,0.0,0.0,39,0.00,,---,0.00,VWS V14.01,2013-11-10 09:23:00,
2013-11-10 04:28:00,40.5,17.5,29.83,South,172,0.0,0.0,39,0.00,,---,0.00,VWS V14.01,2013-11-10 09:28:00,
2013-11-10 04:33:00,40.5,17.5,29.83,South,172,0.0,0.0,39,0.00,,---,0.00,VWS V14.01,2013-11-10 09:33:00,
2013-11-10 04:38:00,40.6,17.6,29.83,South,172,0.0,0.0,39,0.00,,---,0.00,VWS V14.01,2013-11-10 09:38:00,
2013-11-10 04:43:00,40.6,17.6,29.83,South,172,0.0,0.0,39,0.00,,---,0.00,VWS V14.01,2013-11-10 09:43:00,
2013-11-10 04:48:00,40.6,17.6,29.83,South,172,0.0,0.0,39,0.00,,---,0.00,VWS V14.01,2013-11-10 09:48:00,
2013-11-10 04:53:00,40.6,17.6,29.83,South,172,0.0,0.0,39,0.00,,---,0.00,VWS V14.01,2013-11-10 09:53:00,
2013-11-10 04:58:00,40.8,17.8,29.83,ESE,109,0.0,0.0,39,0.00,,---,0.00,VWS V14.01,2013-11-10 09:58:00,
2013-11-10 05:03:00,40.8,17.8,29.83,ESE,109,0.0,0.0,39,0.00,,---,0.00,VWS V14.01,2013-11-10 10:03:00,
2013-11-10 05:08:00,40.8,17.8,29.83,ESE,109,0.0,0.0,39,0.00,,---,0.00,VWS V14.01,2013-11-10 10:08:00,
2013-11-10 05:13:00,40.6,17.6,29.83,ESE,109,0.0,0.0,39,0.00,,---,0.00,VWS V14.01,2013-11-10 10:13:00,
2013-11-10 05:18:00,40.6,17.6,29.83,ESE,109,0.0,0.0,39,0.00,,---,0.00,VWS V14.01,2013-11-10 10:18:00,
2013-11-10 05:23:00,40.6,18.2,29.83,ESE,109,0.0,0.0,40,0.00,,---,0.00,VWS V14.01,2013-11-10 10:23:00,
2013-11-10 05:28:00,40.6,18.2,29.83,ESE,109,0.0,0.0,40,0.00,,---,0.00,VWS V14.01,2013-11-10 10:28:00,
2013-11-10 05:33:00,40.6,18.2,29.83,ESE,109,0.0,0.0,40,0.00,,---,0.00,VWS V14.01,2013-11-10 10:33:00,
2013-11-10 05:36:00,40.6,18.2,29.83,ESE,109,0.0,0.0,40,0.00,,---,0.00,VWS V14.01,2013-11-10 10:36:00,
2013-11-10 05:41:00,40.5,18.1,29.83,ESE,109,0.0,0.0,40,0.00,,---,0.00,VWS V14.01,2013-11-10 10:41:00,
2013-11-10 05:46:00,40.5,18.1,29.83,ESE,109,0.0,0.0,40,0.00,,---,0.00,VWS V14.01,2013-11-10 10:46:00,
2013-11-10 05:51:00,40.5,18.1,29.83,ESE,109,0.0,0.0,40,0.00,,---,0.00,VWS V14.01,2013-11-10 10:51:00,
2013-11-10 05:56:00,40.5,18.1,29.83,ESE,109,0.0,0.0,40,0.00,,---,0.00,VWS V14.01,2013-11-10 10:56:00,
2013-11-10 06:02:00,40.3,17.9,29.83,ESE,109,0.0,0.0,40,0.00,,---,0.00,VWS V14.01,2013-11-10 11:02:00,
2013-11-10 06:06:00,40.3,17.9,29.83,ESE,109,0.0,0.0,40,0.00,,---,0.00,VWS V14.01,2013-11-10 11:06:00,
2013-11-10 06:12:00,40.1,17.7,29.83,ESE,109,0.0,0.0,40,0.00,,---,0.00,VWS V14.01,2013-11-10 11:12:00,
2013-11-10 06:17:00,39.9,18.1,29.83,ESE,109,0.0,0.0,41,0.00,,---,0.00,VWS V14.01,2013-11-10 11:17:00,
2013-11-10 06:22:00,39.7,18.0,29.83,ESE,109,0.0,0.0,41,0.00,,---,0.00,VWS V14.01,2013-11-10 11:22:00,
2013-11-10 06:27:00,39.7,18.0,29.83,ESE,109,0.0,0.0,41,0.00,,---,0.00,VWS V14.01,2013-11-10 11:27:00,
2013-11-10 06:32:00,39.6,17.8,29.83,ESE,109,0.0,0.0,41,0.00,,---,0.00,VWS V14.01,2013-11-10 11:32:00,
2013-11-10 06:37:00,39.4,18.2,29.83,ESE,109,0.0,0.0,42,0.00,,---,0.00,VWS V14.01,2013-11-10 11:37:00,
2013-11-10 06:42:00,39.2,18.0,29.83,ESE,109,0.0,0.0,42,0.00,,---,0.00,VWS V14.01,2013-11-10 11:42:00,
2013-11-10 06:47:00,39.2,18.0,29.83,ESE,109,0.0,0.0,42,0.00,,---,0.00,VWS V14.01,2013-11-10 11:47:00,
2013-11-10 06:52:00,39.0,18.4,29.83,ESE,109,0.0,0.0,43,0.00,,---,0.00,VWS V14.01,2013-11-10 11:52:00,
2013-11-10 06:56:00,39.0,19.0,29.83,ESE,109,0.0,0.0,44,0.00,,---,0.00,VWS V14.01,2013-11-10 11:56:00,
2013-11-10 07:01:00,39.2,18.6,29.83,ESE,109,0.0,0.0,43,0.00,,---,0.00,VWS V14.01,2013-11-10 12:01:00,
2013-11-10 07:06:00,39.2,19.1,29.83,ESE,109,0.0,0.0,44,0.00,,---,0.00,VWS V14.01,2013-11-10 12:06:00,
2013-11-10 07:11:00,39.4,19.8,29.83,ESE,109,0.0,0.0,45,0.00,,---,0.00,VWS V14.01,2013-11-10 12:11:00,
2013-11-10 07:16:00,39.7,20.1,29.83,ESE,109,0.0,0.0,45,0.00,,---,0.00,VWS V14.01,2013-11-10 12:16:00,
2013-11-10 07:21:00,39.7,20.1,29.83,ESE,109,0.0,0.0,45,0.00,,---,0.00,VWS V14.01,2013-11-10 12:21:00,
2013-11-10 07:26:00,39.7,20.1,29.83,SW,216,0.0,0.0,45,0.00,,---,0.00,VWS V14.01,2013-11-10 12:26:00,
2013-11-10 07:31:00,40.6,21.0,29.83,SW,216,0.0,0.0,45,0.00,,---,0.00,VWS V14.01,2013-11-10 12:31:00,
2013-11-10 07:36:00,40.6,21.0,29.83,SW,216,0.0,0.0,45,0.00,,---,0.00,VWS V14.01,2013-11-10 12:36:00,
2013-11-10 07:41:00,41.7,20.9,29.83,East,98,0.0,4.0,43,0.00,,---,0.00,VWS V14.01,2013-11-10 12:41:00,
2013-11-10 07:46:00,41.7,20.9,29.83,NNE,24,0.0,0.0,43,0.00,,---,0.00,VWS V14.01,2013-11-10 12:46:00,
2013-11-10 07:51:00,42.8,19.6,29.83,SE,124,0.0,0.0,39,0.00,,---,0.00,VWS V14.01,2013-11-10 12:51:00,
2013-11-10 07:56:00,43.5,19.6,29.83,SE,124,0.0,0.0,38,0.00,,---,0.00,VWS V14.01,2013-11-10 12:56:00,
2013-11-10 08:01:00,43.9,16.7,29.83,SW,220,0.0,3.6,33,0.00,,---,0.00,VWS V14.01,2013-11-10 13:01:00,
2013-11-10 08:06:00,44.8,15.3,29.83,ESE,103,0.0,0.0,30,0.00,,---,0.00,VWS V14.01,2013-11-10 13:06:00,
2013-11-10 08:12:00,45.3,14.1,29.83,SW,232,3.1,3.1,28,0.00,,---,0.00,VWS V14.01,2013-11-10 13:12:00,
2013-11-10 08:17:00,46.4,11.6,29.83,WSW,241,0.0,0.0,24,0.00,,---,0.00,VWS V14.01,2013-11-10 13:17:00,
2013-11-10 08:22:00,46.9,10.1,29.83,North,0,0.0,2.2,22,0.00,,---,0.00,VWS V14.01,2013-11-10 13:22:00,
2013-11-10 08:27:00,46.9,10.1,29.83,SW,223,0.0,2.2,22,0.00,,---,0.00,VWS V14.01,2013-11-10 13:27:00,
2013-11-10 08:32:00,47.8,5.2,29.83,ESE,115,2.7,3.1,17,0.00,,---,0.00,VWS V14.01,2013-11-10 13:32:00,
2013-11-10 08:37:00,48.7,4.6,29.83,SW,223,2.7,4.0,16,0.00,,---,0.00,VWS V14.01,2013-11-10 13:37:00,
2013-11-10 08:42:00,48.9,4.7,29.83,East,96,0.0,3.6,16,0.00,,---,0.00,VWS V14.01,2013-11-10 13:42:00,
2013-11-10 08:47:00,48.9,4.7,29.83,SSE,151,0.0,0.0,16,0.00,,---,0.00,VWS V14.01,2013-11-10 13:47:00,
2013-11-10 08:52:00,48.9,4.7,29.83,SSE,166,3.6,3.6,16,0.00,,---,0.00,VWS V14.01,2013-11-10 13:52:00,
2013-11-10 08:57:00,50.4,3.0,29.83,SW,221,4.0,4.0,14,0.00,,---,0.00,VWS V14.01,2013-11-10 13:57:00,
2013-11-10 09:02:00,50.4,3.0,29.83,SW,232,0.0,0.0,14,0.00,,---,0.00,VWS V14.01,2013-11-10 14:02:00,
2013-11-10 09:07:00,50.4,3.0,29.83,SSW,200,3.1,3.6,14,0.00,,---,0.00,VWS V14.01,2013-11-10 14:07:00,
2013-11-10 09:12:00,50.4,3.0,29.83,SW,216,2.7,3.1,14,0.00,,---,0.00,VWS V14.01,2013-11-10 14:12:00,
2013-11-10 09:17:00,50.4,3.0,29.83,SW,233,10.1,10.1,14,0.00,,---,0.00,VWS V14.01,2013-11-10 14:17:00,
2013-11-10 09:22:00,50.4,3.0,29.83,SSW,212,2.7,3.6,14,0.00,,---,0.00,VWS V14.01,2013-11-10 14:22:00,
2013-11-10 09:27:00,50.4,3.0,29.83,SSW,193,2.7,3.1,14,0.00,,---,0.00,VWS V14.01,2013-11-10 14:27:00,
2013-11-10 09:32:00,55.6,3.8,29.83,NNW,342,2.7,4.0,12,0.00,,---,0.00,VWS V14.01,2013-11-10 14:32:00,
2013-11-10 09:37:00,56.3,4.4,29.83,SW,225,2.2,5.8,12,0.00,,---,0.00,VWS V14.01,2013-11-10 14:37:00,
2013-11-10 09:42:00,56.7,4.6,29.83,WSW,245,3.1,5.4,12,0.00,,---,0.00,VWS V14.01,2013-11-10 14:42:00,
2013-11-10 09:47:00,57.4,5.2,29.80,WNW,290,3.6,5.4,12,0.00,,---,0.00,VWS V14.01,2013-11-10 14:47:00,
2013-11-10 09:52:00,57.9,5.6,29.80,WSW,245,2.7,4.9,12,0.00,,---,0.00,VWS V14.01,2013-11-10 14:52:00,
2013-11-10 09:57:00,58.1,5.8,29.80,West,262,2.2,5.4,12,0.00,,---,0.00,VWS V14.01,2013-11-10 14:57:00,
2013-11-10 10:02:00,58.5,6.1,29.80,NNW,334,4.0,5.4,12,0.00,,---,0.00,VWS V14.01,2013-11-10 15:02:00,
2013-11-10 10:07:00,58.8,6.3,29.80,SE,141,5.4,5.8,12,0.00,,---,0.00,VWS V14.01,2013-11-10 15:07:00,
2013-11-10 10:12:00,58.8,6.3,29.80,WSW,241,3.6,10.1,12,0.00,,---,0.00,VWS V14.01,2013-11-10 15:12:00,
2013-11-10 10:17:00,58.8,6.3,29.80,WSW,256,2.7,4.9,12,0.00,,---,0.00,VWS V14.01,2013-11-10 15:17:00,
2013-11-10 10:22:00,59.4,6.8,29.80,WNW,284,3.6,3.6,12,0.00,,---,0.00,VWS V14.01,2013-11-10 15:22:00,
2013-11-10 10:27:00,59.5,6.9,29.80,NNW,341,6.3,8.1,12,0.00,,---,0.00,VWS V14.01,2013-11-10 15:27:00,
2013-11-10 10:32:00,59.5,6.9,29.80,West,264,3.6,3.6,12,0.00,,---,0.00,VWS V14.01,2013-11-10 15:32:00,
2013-11-10 10:37:00,60.3,7.5,29.80,SW,217,5.8,5.8,12,0.00,,---,0.00,VWS V14.01,2013-11-10 15:37:00,
2013-11-10 10:42:00,60.6,7.8,29.80,West,276,2.7,4.0,12,0.00,,---,0.00,VWS V14.01,2013-11-10 15:42:00,
2013-11-10 10:47:00,60.6,7.8,29.80,SW,231,5.4,5.4,12,0.00,,---,0.00,VWS V14.01,2013-11-10 15:47:00,
2013-11-10 10:52:00,61.3,6.4,29.80,SW,228,3.6,3.6,11,0.00,,---,0.00,VWS V14.01,2013-11-10 15:52:00,
2013-11-10 10:57:00,61.3,6.4,29.80,SSW,193,6.3,6.3,11,0.00,,---,0.00,VWS V14.01,2013-11-10 15:57:00,
2013-11-10 11:02:00,61.3,6.4,29.77,East,92,4.9,4.9,11,0.00,,---,0.00,VWS V14.01,2013-11-10 16:02:00,
2013-11-10 11:07:00,61.3,6.4,29.77,West,269,4.0,4.0,11,0.00,,---,0.00,VWS V14.01,2013-11-10 16:07:00,
2013-11-10 11:12:00,61.3,6.4,29.77,NW,314,3.1,4.0,11,0.00,,---,0.00,VWS V14.01,2013-11-10 16:12:00,
2013-11-10 11:17:00,61.3,6.4,29.77,West,275,4.0,10.1,11,0.00,,---,0.00,VWS V14.01,2013-11-10 16:17:00,
2013-11-10 11:22:00,61.3,6.4,29.77,WSW,254,3.6,3.6,11,0.00,,---,0.00,VWS V14.01,2013-11-10 16:22:00,
2013-11-10 11:27:00,61.3,6.4,29.77,WNW,297,5.4,5.4,11,0.00,,---,0.00,VWS V14.01,2013-11-10 16:27:00,
2013-11-10 11:32:00,61.3,6.4,29.77,WSW,256,5.4,5.4,11,0.00,,---,0.00,VWS V14.01,2013-11-10 16:32:00,
2013-11-10 11:37:00,61.3,6.4,29.77,SSW,212,3.6,3.6,11,0.00,,---,0.00,VWS V14.01,2013-11-10 16:37:00,
2013-11-10 11:42:00,61.3,6.4,29.77,WSW,247,2.7,2.7,11,0.00,,---,0.00,VWS V14.01,2013-11-10 16:42:00,
2013-11-10 11:47:00,61.3,6.4,29.77,West,270,2.7,4.9,11,0.00,,---,0.00,VWS V14.01,2013-11-10 16:47:00,
2013-11-10 11:52:00,61.3,6.4,29.77,SSE,152,4.9,4.9,11,0.00,,---,0.00,VWS V14.01,2013-11-10 16:52:00,
2013-11-10 11:57:00,61.3,6.4,29.77,West,275,7.6,7.6,11,0.00,,---,0.00,VWS V14.01,2013-11-10 16:57:00,
2013-11-10 12:02:00,61.3,6.4,29.77,SSW,213,6.3,6.3,11,0.00,,---,0.00,VWS V14.01,2013-11-10 17:02:00,
2013-11-10 12:07:00,61.3,6.4,29.77,SW,234,3.1,3.1,11,0.00,,---,0.00,VWS V14.01,2013-11-10 17:07:00,
2013-11-10 12:12:00,65.1,7.2,29.77,West,273,3.1,5.4,10,0.00,,---,0.00,VWS V14.01,2013-11-10 17:12:00,
2013-11-10 12:17:00,64.9,7.1,29.74,NNW,331,3.6,3.6,10,0.00,,---,0.00,VWS V14.01,2013-11-10 17:17:00,
2013-11-10 12:22:00,64.6,6.8,29.74,West,262,5.8,5.8,10,0.00,,---,0.00,VWS V14.01,2013-11-10 17:22:00,
2013-11-10 12:27:00,64.4,6.7,29.74,SSW,213,3.1,3.1,10,0.00,,---,0.00,VWS V14.01,2013-11-10 17:27:00,
2013-11-10 12:32:00,64.9,7.1,29.74,NW,325,5.4,5.8,10,0.00,,---,0.00,VWS V14.01,2013-11-10 17:32:00,
2013-11-10 12:37:00,64.6,6.8,29.74,SSW,211,4.9,6.3,10,0.00,,---,0.00,VWS V14.01,2013-11-10 17:37:00,
2013-11-10 12:42:00,64.4,6.7,29.74,WSW,252,7.2,7.2,10,0.00,,---,0.00,VWS V14.01,2013-11-10 17:42:00,
2013-11-10 12:47:00,64.4,6.7,29.74,SSE,162,10.5,12.8,10,0.00,,---,0.00,VWS V14.01,2013-11-10 17:47:00,
2013-11-10 12:52:00,63.7,8.2,29.74,SSW,209,8.7,9.6,11,0.00,,---,0.00,VWS V14.01,2013-11-10 17:52:00,
2013-11-10 12:57:00,63.7,8.2,29.74,SSW,207,5.8,5.8,11,0.00,,---,0.00,VWS V14.01,2013-11-10 17:57:00,
2013-11-10 13:02:00,63.9,8.4,29.74,SSW,212,6.3,8.1,11,0.00,,---,0.00,VWS V14.01,2013-11-10 18:02:00,
2013-11-10 13:07:00,63.5,8.1,29.74,SW,234,5.4,5.4,11,0.00,,---,0.00,VWS V14.01,2013-11-10 18:07:00,
2013-11-10 13:12:00,63.3,7.9,29.74,WSW,244,3.1,8.7,11,0.00,,---,0.00,VWS V14.01,2013-11-10 18:12:00,
2013-11-10 13:17:00,62.8,7.5,29.74,NNW,331,8.3,8.3,11,0.00,,---,0.00,VWS V14.01,2013-11-10 18:17:00,
2013-11-10 13:22:00,63.1,7.8,29.74,SSW,194,4.0,5.8,11,0.00,,---,0.00,VWS V14.01,2013-11-10 18:22:00,
2013-11-10 13:27:00,63.7,8.2,29.74,WSW,244,8.3,8.3,11,0.00,,---,0.00,VWS V14.01,2013-11-10 18:27:00,
2013-11-10 13:32:00,63.0,7.7,29.74,West,278,8.1,8.1,11,0.00,,---,0.00,VWS V14.01,2013-11-10 18:32:00,
2013-11-10 13:37:00,62.6,7.4,29.74,WSW,238,7.6,11.0,11,0.00,,---,0.00,VWS V14.01,2013-11-10 18:37:00,
2013-11-10 13:42:00,62.2,7.1,29.74,South,186,8.7,8.7,11,0.00,,---,0.00,VWS V14.01,2013-11-10 18:42:00,
2013-11-10 13:47:00,62.2,7.1,29.77,NW,324,8.1,10.5,11,0.00,,---,0.00,VWS V14.01,2013-11-10 18:47:00,
2013-11-10 13:52:00,61.9,6.8,29.77,SW,223,12.8,12.8,11,0.00,,---,0.00,VWS V14.01,2013-11-10 18:52:00,
2013-11-10 13:57:00,62.2,7.1,29.77,WNW,302,14.5,14.5,11,0.00,,---,0.00,VWS V14.01,2013-11-10 18:57:00,
2013-11-10 14:02:00,62.2,7.1,29.74,WSW,251,8.3,8.3,11,0.00,,---,0.00,VWS V14.01,2013-11-10 19:02:00,
2013-11-10 14:07:00,62.2,7.1,29.74,SW,218,4.0,5.8,11,0.00,,---,0.00,VWS V14.01,2013-11-10 19:07:00,
2013-11-10 14:12:00,62.2,7.1,29.77,WSW,245,3.1,4.0,11,0.00,,---,0.00,VWS V14.01,2013-11-10 19:12:00,
2013-11-10 14:17:00,61.2,6.3,29.77,WNW,295,5.4,5.4,11,0.00,,---,0.00,VWS V14.01,2013-11-10 19:17:00,
2013-11-10 14:22:00,60.3,7.5,29.77,NW,322,8.3,8.3,12,0.00,,---,0.00,VWS V14.01,2013-11-10 19:22:00,
2013-11-10 14:27:00,60.3,7.5,29.77,WNW,301,5.4,7.6,12,0.00,,---,0.00,VWS V14.01,2013-11-10 19:27:00,
2013-11-10 14:32:00,60.4,7.6,29.77,South,179,6.3,6.3,12,0.00,,---,0.00,VWS V14.01,2013-11-10 19:32:00,
2013-11-10 14:37:00,60.6,7.8,29.77,SW,226,8.1,8.7,12,0.00,,---,0.00,VWS V14.01,2013-11-10 19:37:00,
2013-11-10 14:42:00,60.6,7.8,29.77,SW,236,5.4,5.4,12,0.00,,---,0.00,VWS V14.01,2013-11-10 19:42:00,
2013-11-10 14:47:00,60.4,7.6,29.77,West,269,8.1,8.1,12,0.00,,---,0.00,VWS V14.01,2013-11-10 19:47:00,
2013-11-10 14:52:00,60.1,7.3,29.77,NW,307,5.4,5.4,12,0.00,,---,0.00,VWS V14.01,2013-11-10 19:52:00,
2013-11-10 14:57:00,59.9,7.2,29.80,West,279,3.6,11.0,12,0.00,,---,0.00,VWS V14.01,2013-11-10 19:57:00,
2013-11-10 15:02:00,59.5,6.9,29.80,West,275,9.6,9.6,12,0.00,,---,0.00,VWS V14.01,2013-11-10 20:02:00,
2013-11-10 15:07:00,59.2,6.6,29.80,NW,324,8.1,8.1,12,0.00,,---,0.00,VWS V14.01,2013-11-10 20:07:00,
2013-11-10 15:12:00,58.5,6.1,29.80,WNW,282,5.4,6.3,12,0.00,,---,0.00,VWS V14.01,2013-11-10 20:12:00,
2013-11-10 15:17:00,57.9,5.6,29.80,WSW,237,6.3,9.6,12,0.00,,---,0.00,VWS V14.01,2013-11-10 20:17:00,
2013-11-10 15:22:00,57.7,5.5,29.80,WNW,293,7.6,7.6,12,0.00,,---,0.00,VWS V14.01,2013-11-10 20:22:00,
2013-11-10 15:27:00,57.4,5.2,29.80,NNW,329,7.6,7.6,12,0.00,,---,0.00,VWS V14.01,2013-11-10 20:27:00,
2013-11-10 15:32:00,56.8,4.8,29.80,WNW,298,7.6,12.8,12,0.00,,---,0.00,VWS V14.01,2013-11-10 20:32:00,
2013-11-10 15:37:00,56.5,4.5,29.80,WNW,294,2.7,5.4,12,0.00,,---,0.00,VWS V14.01,2013-11-10 20:37:00,
2013-11-10 15:42:00,56.1,4.2,29.83,NW,311,4.9,7.6,12,0.00,,---,0.00,VWS V14.01,2013-11-10 20:42:00,
2013-11-10 15:47:00,55.9,4.1,29.83,WNW,284,9.2,9.2,12,0.00,,---,0.00,VWS V14.01,2013-11-10 20:47:00,
2013-11-10 15:52:00,55.8,3.9,29.83,NW,317,4.0,7.6,12,0.00,,---,0.00,VWS V14.01,2013-11-10 20:52:00,
2013-11-10 15:57:00,55.4,3.7,29.83,West,261,8.1,8.1,12,0.00,,---,0.00,VWS V14.01,2013-11-10 20:57:00,
2013-11-10 16:02:00,55.2,5.2,29.83,West,271,14.5,14.5,13,0.00,,---,0.00,VWS V14.01,2013-11-10 21:02:00,
2013-11-10 16:07:00,55.0,5.1,29.83,NW,308,6.3,12.3,13,0.00,,---,0.00,VWS V14.01,2013-11-10 21:07:00,
2013-11-10 16:12:00,54.9,5.0,29.83,WSW,250,13.2,13.2,13,0.00,,---,0.00,VWS V14.01,2013-11-10 21:12:00,
2013-11-10 16:17:00,54.5,4.7,29.85,NW,325,6.3,6.3,13,0.00,,---,0.00,VWS V14.01,2013-11-10 21:17:00,
2013-11-10 16:22:00,54.3,4.5,29.85,West,261,5.8,8.7,13,0.00,,---,0.00,VWS V14.01,2013-11-10 21:22:00,
2013-11-10 16:27:00,54.1,4.4,29.85,NNW,335,8.3,8.3,13,0.00,,---,0.00,VWS V14.01,2013-11-10 21:27:00,
2013-11-10 16:32:00,53.8,4.1,29.85,West,280,8.3,8.3,13,0.00,,---,0.00,VWS V14.01,2013-11-10 21:32:00,
2013-11-10 16:37:00,53.4,3.8,29.85,NW,305,3.1,4.0,13,0.00,,---,0.00,VWS V14.01,2013-11-10 21:37:00,
2013-11-10 16:42:00,53.2,3.7,29.85,NW,304,3.6,7.6,13,0.00,,---,0.00,VWS V14.01,2013-11-10 21:42:00,
2013-11-10 16:47:00,53.1,3.5,29.85,WNW,290,3.1,3.6,13,0.00,,---,0.00,VWS V14.01,2013-11-10 21:47:00,
2013-11-10 16:52:00,53.1,3.5,29.85,SW,235,4.9,5.4,13,0.00,,---,0.00,VWS V14.01,2013-11-10 21:52:00,
2013-11-10 16:57:00,52.7,3.2,29.85,WNW,300,5.8,8.3,13,0.00,,---,0.00,VWS V14.01,2013-11-10 21:57:00,
2013-11-10 17:02:00,52.5,3.1,29.85,West,264,2.2,3.6,13,0.00,,---,0.00,VWS V14.01,2013-11-10 22:02:00,
2013-11-10 17:07:00,52.3,3.0,29.85,North,353,7.6,7.6,13,0.00,,---,0.00,VWS V14.01,2013-11-10 22:07:00,
2013-11-10 17:12:00,52.2,2.8,29.88,West,264,8.3,8.3,13,0.00,,---,0.00,VWS V14.01,2013-11-10 22:12:00,
2013-11-10 17:17:00,52.2,2.8,29.88,NNW,337,6.3,6.3,13,0.00,,---,0.00,VWS V14.01,2013-11-10 22:17:00,
2013-11-10 17:22:00,52.0,2.7,29.88,WSW,240,5.8,5.8,13,0.00,,---,0.00,VWS V14.01,2013-11-10 22:22:00,
2013-11-10 17:27:00,52.0,2.7,29.88,WSW,245,3.1,4.0,13,0.00,,---,0.00,VWS V14.01,2013-11-10 22:27:00,
2013-11-10 17:32:00,51.8,2.5,29.88,NNW,335,2.7,6.3,13,0.00,,---,0.00,VWS V14.01,2013-11-10 22:32:00,
2013-11-10 17:37:00,51.6,4.0,29.88,WSW,244,3.1,7.6,14,0.00,,---,0.00,VWS V14.01,2013-11-10 22:37:00,
2013-11-10 17:42:00,51.3,3.7,29.91,WNW,286,4.0,5.8,14,0.00,,---,0.00,VWS V14.01,2013-11-10 22:42:00,
2013-11-10 17:47:00,51.4,3.8,29.91,West,273,0.0,2.7,14,0.00,,---,0.00,VWS V14.01,2013-11-10 22:47:00,
2013-11-10 17:52:00,51.4,3.8,29.91,West,266,3.1,7.6,14,0.00,,---,0.00,VWS V14.01,2013-11-10 22:52:00,
2013-11-10 17:57:00,51.3,3.7,29.91,NW,316,5.4,5.4,14,0.00,,---,0.00,VWS V14.01,2013-11-10 22:57:00,
2013-11-10 18:02:00,51.4,3.8,29.91,West,279,4.9,4.9,14,0.00,,---,0.00,VWS V14.01,2013-11-10 23:02:00,
2013-11-10 18:07:00,51.3,3.7,29.91,WSW,253,3.6,5.4,14,0.00,,---,0.00,VWS V14.01,2013-11-10 23:07:00,
2013-11-10 18:12:00,50.9,3.4,29.91,WSW,245,4.0,8.3,14,0.00,,---,0.00,VWS V14.01,2013-11-10 23:12:00,
2013-11-10 18:17:00,50.7,3.3,29.91,West,260,5.4,5.4,14,0.00,,---,0.00,VWS V14.01,2013-11-10 23:17:00,
2013-11-10 18:22:00,50.4,3.0,29.91,WNW,300,2.7,4.0,14,0.00,,---,0.00,VWS V14.01,2013-11-10 23:22:00,
2013-11-10 18:27:00,50.9,3.4,29.91,West,270,3.6,3.6,14,0.00,,---,0.00,VWS V14.01,2013-11-10 23:27:00,
2013-11-10 18:32:00,50.9,3.4,29.91,West,264,4.9,11.0,14,0.00,,---,0.00,VWS V14.01,2013-11-10 23:32:00,
2013-11-10 18:37:00,51.3,3.7,29.91,NW,309,3.6,4.9,14,0.00,,---,0.00,VWS V14.01,2013-11-10 23:37:00,
2013-11-10 18:42:00,51.1,3.6,29.94,WSW,250,5.4,6.3,14,0.00,,---,0.00,VWS V14.01,2013-11-10 23:42:00,
2013-11-10 18:47:00,51.3,3.7,29.94,West,264,3.1,5.4,14,0.00,,---,0.00,VWS V14.01,2013-11-10 23:47:00,
2013-11-10 18:52:00,51.3,3.7,29.94,North,4,3.1,8.1,14,0.00,,---,0.00,VWS V14.01,2013-11-10 23:52:00,
2013-11-10 18:57:00,51.1,3.6,29.94,WSW,253,5.8,10.1,14,0.00,,---,0.00,VWS V14.01,2013-11-10 23:57:00,
2013-11-10 19:02:00,50.9,3.4,29.94,SW,218,5.4,5.8,14,0.00,,---,0.00,VWS V14.01,2013-11-11 00:02:00,
2013-11-10 19:07:00,50.7,3.3,29.94,WNW,286,10.1,10.1,14,0.00,,---,0.00,VWS V14.01,2013-11-11 00:07:00,
2013-11-10 19:12:00,50.5,3.1,29.94,West,264,5.4,11.9,14,0.00,,---,0.00,VWS V14.01,2013-11-11 00:12:00,
2013-11-10 19:17:00,50.4,3.0,29.94,SW,226,3.1,5.8,14,0.00,,---,0.00,VWS V14.01,2013-11-11 00:17:00,
2013-11-10 19:22:00,50.2,2.8,29.94,NW,308,4.9,8.1,14,0.00,,---,0.00,VWS V14.01,2013-11-11 00:22:00,
2013-11-10 19:27:00,50.2,2.8,29.94,SSW,207,6.3,7.6,14,0.00,,---,0.00,VWS V14.01,2013-11-11 00:27:00,
2013-11-10 19:33:00,50.2,2.8,29.94,West,266,4.9,4.9,14,0.00,,---,0.00,VWS V14.01,2013-11-11 00:33:00,
2013-11-10 19:38:00,50.0,2.7,29.94,NW,315,8.1,13.6,14,0.00,,---,0.00,VWS V14.01,2013-11-11 00:38:00,
2013-11-10 19:43:00,49.8,2.5,29.94,WSW,256,0.0,2.7,14,0.00,,---,0.00,VWS V14.01,2013-11-11 00:43:00,
2013-11-10 19:48:00,49.3,2.1,29.94,WSW,257,3.1,3.1,14,0.00,,---,0.00,VWS V14.01,2013-11-11 00:48:00,
2013-11-10 19:53:00,48.9,1.8,29.94,WSW,246,4.0,5.4,14,0.00,,---,0.00,VWS V14.01,2013-11-11 00:53:00,
2013-11-10 19:58:00,48.9,1.8,29.97,West,273,3.6,7.6,14,0.00,,---,0.00,VWS V14.01,2013-11-11 00:58:00,
2013-11-10 20:03:00,48.7,1.7,29.97,West,267,2.7,6.7,14,0.00,,---,0.00,VWS V14.01,2013-11-11 01:03:00,
2013-11-10 20:08:00,48.7,1.7,29.97,NNW,330,2.7,5.4,14,0.00,,---,0.00,VWS V14.01,2013-11-11 01:08:00,
2013-11-10 20:13:00,48.7,1.7,29.97,WSW,247,3.6,8.3,14,0.00,,---,0.00,VWS V14.01,2013-11-11 01:13:00,
2013-11-10 20:18:00,48.7,1.7,29.97,WSW,237,8.1,8.1,14,0.00,,---,0.00,VWS V14.01,2013-11-11 01:18:00,
2013-11-10 20:23:00,48.6,1.5,29.97,North,8,3.1,5.8,14,0.00,,---,0.00,VWS V14.01,2013-11-11 01:23:00,
2013-11-10 20:28:00,48.6,1.5,29.97,ENE,57,2.7,4.0,14,0.00,,---,0.00,VWS V14.01,2013-11-11 01:28:00,
2013-11-10 20:33:00,48.2,1.2,29.97,West,270,5.8,5.8,14,0.00,,---,0.00,VWS V14.01,2013-11-11 01:33:00,
2013-11-10 20:38:00,48.0,1.1,29.97,WSW,249,3.1,3.6,14,0.00,,---,0.00,VWS V14.01,2013-11-11 01:38:00,
2013-11-10 20:43:00,47.8,1.0,29.97,West,272,4.0,4.9,14,0.00,,---,0.00,VWS V14.01,2013-11-11 01:43:00,
2013-11-10 20:48:00,47.8,1.0,29.97,SW,220,4.0,4.0,14,0.00,,---,0.00,VWS V14.01,2013-11-11 01:48:00,
2013-11-10 20:53:00,47.5,0.7,29.97,WNW,287,2.7,4.0,14,0.00,,---,0.00,VWS V14.01,2013-11-11 01:53:00,
2013-11-10 20:58:00,47.3,0.5,29.94,West,264,0.0,0.0,14,0.00,,---,0.00,VWS V14.01,2013-11-11 01:58:00,
2013-11-10 21:03:00,46.9,0.2,29.94,WSW,244,2.7,2.7,14,0.00,,---,0.00,VWS V14.01,2013-11-11 02:03:00,
2013-11-10 21:08:00,46.9,0.2,29.94,WSW,257,4.9,4.9,14,0.00,,---,0.00,VWS V14.01,2013-11-11 02:08:00,
2013-11-10 21:13:00,46.9,0.2,29.97,WSW,252,6.3,6.3,14,0.00,,---,0.00,VWS V14.01,2013-11-11 02:13:00,
2013-11-10 21:18:00,47.1,0.4,29.97,WSW,243,2.2,3.1,14,0.00,,---,0.00,VWS V14.01,2013-11-11 02:18:00,
2013-11-10 21:23:00,46.9,0.2,29.97,West,265,5.8,8.7,14,0.00,,---,0.00,VWS V14.01,2013-11-11 02:23:00,
2013-11-10 21:28:00,47.1,0.4,29.97,SW,218,2.7,3.1,14,0.00,,---,0.00,VWS V14.01,2013-11-11 02:28:00,
2013-11-10 21:33:00,46.9,0.2,29.97,WSW,244,5.8,5.8,14,0.00,,---,0.00,VWS V14.01,2013-11-11 02:33:00,
2013-11-10 21:38:00,46.9,0.2,29.97,WNW,284,3.1,3.1,14,0.00,,---,0.00,VWS V14.01,2013-11-11 02:38:00,
2013-11-10 21:43:00,46.6,-0.1,29.97,WSW,254,2.7,2.7,14,0.00,,---,0.00,VWS V14.01,2013-11-11 02:43:00,
2013-11-10 21:48:00,46.4,-0.2,29.97,NW,314,4.0,4.0,14,0.00,,---,0.00,VWS V14.01,2013-11-11 02:48:00,
2013-11-10 21:53:00,46.2,1.1,29.97,West,273,2.7,3.1,15,0.00,,---,0.00,VWS V14.01,2013-11-11 02:53:00,
2013-11-10 21:58:00,46.2,1.1,29.97,WSW,257,3.1,3.1,15,0.00,,---,0.00,VWS V14.01,2013-11-11 02:58:00,
2013-11-10 22:03:00,46.0,1.0,29.97,NNW,328,0.0,0.0,15,0.00,,---,0.00,VWS V14.01,2013-11-11 03:03:00,
2013-11-10 22:08:00,45.9,0.8,29.97,WSW,247,2.7,2.7,15,0.00,,---,0.00,VWS V14.01,2013-11-11 03:08:00,
2013-11-10 22:13:00,45.9,0.8,29.97,West,274,0.0,0.0,15,0.00,,---,0.00,VWS V14.01,2013-11-11 03:13:00,
2013-11-10 22:18:00,45.5,0.6,29.97,WSW,238,0.0,0.0,15,0.00,,---,0.00,VWS V14.01,2013-11-11 03:18:00,
2013-11-10 22:23:00,45.1,0.3,29.97,SW,228,3.1,3.6,15,0.00,,---,0.00,VWS V14.01,2013-11-11 03:23:00,
2013-11-10 22:28:00,45.0,0.1,29.97,SW,224,0.0,0.0,15,0.00,,---,0.00,VWS V14.01,2013-11-11 03:28:00,
2013-11-10 22:33:00,44.8,0.0,29.97,SW,223,0.0,2.2,15,0.00,,---,0.00,VWS V14.01,2013-11-11 03:33:00,
2013-11-10 22:38:00,44.8,0.0,29.97,SW,227,5.4,5.4,15,0.00,,---,0.00,VWS V14.01,2013-11-11 03:38:00,
2013-11-10 22:43:00,45.1,0.3,30.00,NW,311,0.0,0.0,15,0.00,,---,0.00,VWS V14.01,2013-11-11 03:43:00,
2013-11-10 22:48:00,45.0,0.1,30.00,WSW,250,0.0,4.0,15,0.00,,---,0.00,VWS V14.01,2013-11-11 03:48:00,
2013-11-10 22:53:00,44.8,0.0,30.00,SSW,199,0.0,0.0,15,0.00,,---,0.00,VWS V14.01,2013-11-11 03:53:00,
2013-11-10 22:58:00,44.6,-4.9,30.00,SSW,199,0.0,0.0,12,0.00,,---,0.00,VWS V14.01,2013-11-11 03:58:00,
2013-11-10 23:03:00,44.2,-3.5,30.00,West,261,2.7,2.7,13,0.00,,---,0.00,VWS V14.01,2013-11-11 04:03:00,
2013-11-10 23:08:00,44.1,-3.6,30.00,SW,215,0.0,3.1,13,0.00,,---,0.00,VWS V14.01,2013-11-11 04:08:00,
2013-11-10 23:13:00,43.9,-3.8,30.00,WSW,256,0.0,4.9,13,0.00,,---,0.00,VWS V14.01,2013-11-11 04:13:00,
2013-11-10 23:18:00,43.7,-3.9,30.00,SW,230,2.2,3.1,13,0.00,,---,0.00,VWS V14.01,2013-11-11 04:18:00,
2013-11-10 23:23:00,43.5,-4.1,30.00,SW,216,2.2,3.1,13,0.00,,---,0.00,VWS V14.01,2013-11-11 04:23:00,
2013-11-10 23:28:00,43.3,-4.2,30.00,West,266,3.6,3.6,13,0.00,,---,0.00,VWS V14.01,2013-11-11 04:28:00,
2013-11-10 23:33:00,43.3,-4.2,30.00,West,267,2.7,4.0,13,0.00,,---,0.00,VWS V14.01,2013-11-11 04:33:00,
2013-11-10 23:38:00,43.3,-4.2,30.00,WSW,237,5.4,5.4,13,0.00,,---,0.00,VWS V14.01,2013-11-11 04:38:00,
2013-11-10 23:43:00,43.2,-4.3,30.00,WSW,254,0.0,2.7,13,0.00,,---,0.00,VWS V14.01,2013-11-11 04:43:00,
2013-11-10 23:48:00,43.0,-4.5,30.00,WSW,254,0.0,2.7,13,0.00,,---,0.00,VWS V14.01,2013-11-11 04:48:00,
2013-11-10 23:53:00,43.0,-4.5,30.00,WSW,258,2.2,3.1,13,0.00,,---,0.00,VWS V14.01,2013-11-11 04:53:00,
2013-11-10 23:58:00,43.0,-4.5,30.00,NE,46,0.0,0.0,13,0.00,,---,0.00,VWS V14.01,2013-11-11 04:58:00,